Regional Weather Roundup
Issued by NWS

Home | Current Version | Previous Version | Text Only | Print | Product List | Glossary On
Versions: 1 2 3 4 5 6 7 8 9 10 11 12 13 14 15 16 17 18 19 20 21 22 23 24 25 26 27 28
000
ASUS45 KPSR 221510
RWRAZ

ARIZONA HOURLY REGIONAL WEATHER ROUNDUP
NATIONAL WEATHER SERVICE PHOENIX AZ
800 AM MST WED FEB 22 2017

NOTE: FAIR INDICATES FEW OR NO CLOUDS BELOW 12,000 FEET WITH NO
SIGNIFICANT WEATHER AND/OR OBSTRUCTIONS TO VISIBILITY.

AZZ001>003-036-221600-
NORTHWEST ARIZONA

CITY           SKY/WX    TMP DP  RH WIND       PRES   REMARKS
BULLHEAD CITY  CLOUDY    54  52  94 CALM      29.99F
KINGMAN        MOCLDY    43  37  79 CALM      30.03S
$$

AZZ004>008-015-016-018-221600-
NORTH CENTRAL ARIZONA

CITY           SKY/WX    TMP DP  RH WIND       PRES   REMARKS
GRAND CANYON   CLOUDY    40  39  97 S7        30.11S
WILLIAMS       CLOUDY    43  37  81 S15G23    30.13S
PRESCOTT       CLOUDY    45  41  86 SE5       30.12S
FLAGSTAFF      PTSUNNY   42  39  89 SW6       30.16S
PAYSON         PTSUNNY   45  39  81 CALM      30.17S
PAGE           MOCLDY    46  37  71 W3        29.98S
$$

AZZ009>014-017-221600-
NORTHEAST ARIZONA

CITY           SKY/WX    TMP DP  RH WIND       PRES   REMARKS
WINSLOW        MOSUNNY   41  38  89 SE9       30.11S
SAINT JOHNS    PTSUNNY   39  34  82 CALM      30.13S
SHOW LOW       PTSUNNY   43  32  65 S7        30.18R
$$

AZZ023-221600-
GREATER PHOENIX AREA

CITY           SKY/WX    TMP DP  RH WIND       PRES   REMARKS
PHOENIX        PTSUNNY   58  52  80 E6        30.03S
BUCKEYE        MOCLDY    54  54 100 NW6       30.04R
GLENDALE       PTSUNNY   55  54  94 CALM      30.05S
LUKE AFB       CLOUDY    55  55 100 N3        30.02F
DEER VALLEY    CLOUDY    58  52  80 NE3       30.03S
SCOTTSDALE     PTSUNNY   57  51  80 CALM      30.04F
MESA-FALCON      N/A    N/A N/A N/A N7        30.02S
MESA-GATEWAY   MOSUNNY   52  48  87 CALM      30.06
CHANDLER       SUNNY     54  52  94 CALM      30.05S
$$

AZZ027-028-221600-
SOUTHWEST MARICOPA COUNTY AND PINAL COUNTY

CITY           SKY/WX    TMP DP  RH WIND       PRES   REMARKS
CASA GRANDE    NOT AVBL
GILA BEND      MOSUNNY   56  52  84 S6        30.03S
$$

AZZ503-504-507>509-221600-
SOUTHEAST ARIZONA

CITY           SKY/WX    TMP DP  RH WIND       PRES   REMARKS
TUCSON         SUNNY     53  42  66 SE12      30.09S
DAVIS-MONTHAN  SUNNY     51  42  73 SE8       30.09R
RYAN FIELD     SUNNY     48  45  87 E3        30.09F
NOGALES        SUNNY     44  39  82 CALM      30.13S
SIERRA VISTA   SUNNY     53  38  56 CALM      30.16S
DOUGLAS        SUNNY     42  36  79 CALM      30.15R
SAFFORD        SUNNY     48  39  71 SE6       30.09S
$$

AZZ020-021-025-026-031-221600-
SOUTHWEST ARIZONA

CITY           SKY/WX    TMP DP  RH WIND       PRES   REMARKS
YUMA           MOCLDY    58  53  84 CALM      30.00S
$$

CAZ031-033-041-043-047-048-061-221600-
SOUTHERN CALIFORNIA

CITY           SKY/WX    TMP DP  RH WIND       PRES   REMARKS
DOWNTOWN L.A.  CLEAR     51  49  92 CALM      30.13S
L.A. AIRPORT   PTCLDY    53  51  93 N3        30.13F
SAN DIEGO      MOCLDY    58  53  84 N6        30.17R
BURBANK        CLEAR     47  43  86 NW6       30.12S
ONTARIO        MOCLDY    52  50  93 SW7       30.13R
RIVERSIDE      MOCLDY    52  52 100 CALM      30.13S
PALM SPRINGS   CLEAR     56  48  74 CALM      30.01R
EL CENTRO NAS  MOCLDY    54  41  61 CALM      30.01S
IMPERIAL       PTCLDY    61  39  44 W6        29.99F
BLYTHE         MOCLDY    57  54  89 W8        30.00S
NEEDLES        CLOUDY    55  50  83 SW5       30.00S
$$

NVZ020-UTZ003-221600-
SOUTHERN NEVADA-UTAH

CITY           SKY/WX    TMP DP  RH WIND       PRES   REMARKS
LAS VEGAS      PTCLDY    55  32  41 S17G24    29.93R
SALT LAKE CITY CLOUDY    36  34  92 SE8       29.99F WCI  30
$$

NMZ009-TXZ055-221600-
NEW MEXICO-WEST TEXAS

CITY           SKY/WX    TMP DP  RH WIND       PRES   REMARKS
ALBUQUERQUE    CLOUDY    48  36  63 CALM      30.15R
EL PASO        MOSUNNY   53  34  48 S6        30.11R
$$


........................KEY........................
SKY/WX - SKY CONDITION/WEATHER
TMP    - TEMPERATURE IN FAHRENHEIT
DP     - DEW POINT IN FAHRENHEIT
RH     - RELATIVE HUMIDITY IN PERCENT
WIND   - DIRECTION AND SPEED IN MILES PER HOUR (MPH)
VRB    - VARIABLE WIND DIRECTION
PRES   - MEAN SEA LEVEL PRESSURE IN INCHES OF MERCURY
         F - FALLING PRESSURE   R - RISING PRESSURE
         S - STEADY PRESSURE
VSB    - VISIBILITY IN MILES
HX     - HEAT INDEX IN FAHRENHEIT
WCI    - WIND CHILL INDEX IN FAHRENHEIT
TC     - TEMPERATURE IN CELSIUS WHICH IS ALSO KNOWN AS
         TEMPERATURE IN CENTIGRADE
AFB    - AIR FORCE BASE
         LUKE AFB IS LUKE AIR FORCE BASE
         DAVIS-MONTHAN IS DAVIS-MONTHAN AIR FORCE BASE
NAS    - NAVAL AIR STATION
         EL CENTRO NAS IS EL CENTRO NAVAL AIR STATION
N/A    - NOT AVAILABLE





USA.gov is the U.S. government's official web portal to all federal, state and local government web resources and services.